Regional Weather Roundup
Issued by NWS Wakefield, VA

Home | Current Version | Previous Version | Graphics & Text | Print | Product List | Glossary On
Versions: 1 2 3 4 5 6 7 8 9 10 11 12 13 14 15 16 17 18 19 20 21 22 23 24 25 26 27 28 29 30 31 32 33 34 35 36 37 38 39 40 41 42 43 44 45 46 47 48 49 50
000
ASUS41 KAKQ 281910
RWRAKQ

REGIONAL WEATHER ROUNDUP
NATIONAL WEATHER SERVICE WAKEFIELD VA
200 PM EST SUN DEC 28 2014

Note: "fair" indicates few or no clouds below 12,000 feet with no
significant weather and/or obstructions to visibility. * = Denotes
station may not report precipitation (e.g., rain,snow,etc.),
thunder or fog.

VAZ042-051-052>054-056-282000-
NORTHERN VIRGINIA

CITY           SKY/WX    TMP DP  RH WIND       PRES   REMARKS
WASH NATIONAL  CLOUDY    54  41  61 S5        29.95S
DULLES         CLOUDY    54  46  74 CALM      29.94F
FORT BELVOIR   CLOUDY    57  43  60 VRB1      29.95R
QUANTICO       CLOUDY    50  40  68 SW5       29.96S
FREDERICKSBRG* DRIZZLE   57  45  64 CALM      29.94F
STAFFORD*      LGT RAIN  56  45  67 CALM      29.98F
WARRENTON      CLOUDY    56  50  82 CALM      29.93F
CULPEPER*      DRIZZLE   55  45  67 CALM      29.94F
MANASSAS*      PTSUNNY   55  45  67 CALM      29.95S
LEESBURG*      CLOUDY    57  46  67 CALM      29.95F
WINCHESTER     CLOUDY    57  36  44 CALM      29.94R
FRONT ROYAL*   CLOUDY    55  39  54 CALM      29.93S
LURAY*         LGT RAIN  54  45  71 N3        29.93S
$$

VAZ048-049-060>072-079>083-282000-
CENTRAL AND SOUTH CENTRAL VIRGINIA

CITY           SKY/WX    TMP DP  RH WIND       PRES   REMARKS
RICHMOND       CLOUDY    63  46  54 SW10      29.95S
CHESTERFIELD*  CLOUDY    61  41  48 SW9       29.96F
PETERSBURG*    CLOUDY    62  50  64 SW6       29.96F
HANOVER        CLOUDY    63  43  48 W7        29.95F
TAPPAHANNOCK*  CLOUDY    63  38  40 W3        29.95S
QUINTON*       CLOUDY    61  48  62 SW6       29.95S
CHARLOTTSVILLE CLOUDY    56  42  59 S7        29.93S
GORDONSVILLE*  CLOUDY    55  42  60 CALM      29.93F
ORANGE*        CLOUDY    55  45  67 CALM      29.96S
LOUISA*        DRIZZLE   57  46  67 S6        29.94R
BUMPASS*       CLOUDY    55  48  79 SW3       29.95R
FARMVILLE*     CLOUDY    62  45  53 S3        29.95S
CREWE*         CLOUDY    59  45  59 SW3       29.96S
FORT PICKETT*  CLOUDY    59  48  67 SW8       29.97S
CHASE CITY*    CLOUDY    62  53  73 CALM      29.97F
CLARKSVILLE*   CLOUDY    61  52  72 W5        29.97S
SOUTH HILL*    CLOUDY    61  53  75 SW6       30.03S
LAWRENCEVILLE* CLOUDY    61  54  76 SW6       29.96F
EMPORIA*       CLOUDY    63  54  72 SW9       29.99S
$$

VAZ088>098-282000-
SOUTHEAST VIRGINIA

CITY           SKY/WX    TMP DP  RH WIND       PRES   REMARKS
NORFOLK        PTSUNNY   65  52  62 SW13G20   29.96F
VIRGINIA BEACH PTSUNNY   67  54  63 W22       29.96F
NORFOLK NAVAL  CLOUDY    67  53  61 W8G17     29.97F
WEST POINT*    CLOUDY    64  48  54 SW7       29.96S
SALUDA*        MOCLDY    61  49  65 W7        29.94S
NEWPORT NEWS   CLOUDY    66  53  63 SW14      29.95F
LANGLEY AFB    CLOUDY    63  54  72 W16G22    29.96F
FORT EUSTIS    CLOUDY    63  62  99 SW9       29.94F
WILLIAMSBURG*  CLOUDY    66  55  68 SW8       29.96S
HR EXEC AP*    MOCLDY    64  55  72 SW10G16   29.98F
FRANKLIN*      CLOUDY    64  54  68 SW7G18    29.97F
WAKEFIELD      CLOUDY    63  53  70 SW7       29.96F
$$

VAZ020-022-025-037-045-282000-
WEST CENTRAL AND SOUTHWEST VIRGINIA

CITY           SKY/WX    TMP DP  RH WIND       PRES   REMARKS
STAUNTON*      LGT RAIN  55  47  74 S3        29.95S
WAYNESBORO*    CLOUDY    55  45  68 SW3       29.95R
HOT SPRINGS VA LGT RAIN  43  43 100 W13G23    29.94S VSB 1/4
LYNCHBURG      LGT RAIN  56  44  64 SW5       29.97F
DANVILLE       CLOUDY    61  50  67 W9        29.98F
SOUTH BOSTON*  CLOUDY    61  49  65 SW6       29.97F
MARTINSVILLE   CLOUDY    58  43  58 CALM      30.01R
ROANOKE        LGT RAIN  55  47  74 SW9       30.00R
BLACKSBURG     RAIN      48  47  96 CALM      30.03S
DUBLIN*        RAIN      51  50  96 W5        30.02S
MARION*        CLOUDY    47  46  95 W12       30.04F
HILLSVILLE*    RAIN      49  47  95 NW6       30.01F
RICHLANDS*     LGT RAIN  46  44  93 W6        30.04R
WISE*          RAIN      46  46 100 CALM      30.05R
ABINGDON*      DRIZZLE   47  47  97 W5        30.06R
$$

MDZ021>025-VAZ099-100-282000-
SOUTHERN MARYLAND AND THE DELMARVA PENINSULA

CITY           SKY/WX    TMP DP  RH WIND       PRES   REMARKS
PATUXENT RIVER LGT RAIN  57  40  52 CALM      29.95R
BAY BRIDGE APT   N/A     52  41  66 CALM      29.95R
LEONARDTOWN    CLOUDY    55  39  54 W5        29.96F
DOVER          CLOUDY    56  43  61 W9        29.94R
GEORGETOWN     CLOUDY    58  40  51 W6        29.95S
EASTON         PTSUNNY   57  43  58 W6        29.99R
CAMBRIDGE      CLOUDY    57  41  54 W3        29.95R
SALISBURY      CLOUDY    61  40  45 W7        29.95S
OCEAN CITY     CLOUDY    58  42  55 W6        29.94F
WALLOPS ISLAND CLOUDY    58  47  66 NW8       29.96S
ACCOMACK*      CLOUDY    61  48  63 W8        29.95R
$$

NCZ012>017-030>032-282000-
NORTH CENTRAL AND EASTERN NORTH CAROLINA

CITY           SKY/WX    TMP DP  RH WIND       PRES   REMARKS
ROANOKE RAPIDS CLOUDY    61  54  77 SW13      29.99S
RALEIGH        CLOUDY    60  53  77 W9        30.01F
ELIZABETH CITY PTSUNNY   69  55  60 SW10      29.99F
AHOSKIE*       CLOUDY    64  55  73 CALM      29.99F
EDENTON*       PTSUNNY   65  54  68 SW8       30.00F
CURRITUCK*     PTSUNNY   66  52  60 SW14      29.99F
KILL DEVIL HLS CLOUDY    63  56  80 W5        30.00S
MANTEO         CLOUDY    63  55  77 W8        30.02S
CAPE HATTERAS  CLOUDY    62  58  86 W7        30.02F
TARBORO*       CLOUDY    63  56  79 SW5       30.01F
GOLDSBORO      CLOUDY    64  63  97 SW8       30.00F
WASHINGTON     CLOUDY    65  55  70 W7        30.02S
GREENVILLE     CLOUDY    64  59  82 W8        30.03S
NEW BERN       MOSUNNY   75  57  53 W10G21    30.02F
WILMINGTON     MOSUNNY   74  60  61 SW17G26   30.01F
$$

VAZ048-282000-
ELSEWHERE

CITY           SKY/WX    TMP DP  RH WIND       PRES   REMARKS
HARRISBURG PA  CLOUDY    49  42  77 N5        29.93R
BALTIMORE      CLOUDY    57  42  57 W7        29.94R
ANNAPOLIS      CLOUDY    46  41  82 SE6       29.94R
ANDREWS AFB    CLOUDY    56  41  56 W2        29.94S
PHILADELPHIA   CLOUDY    55  41  59 SW8       29.93S
HENDERSON NC   CLOUDY    62  53  72 SW8       29.97F
GREENSBORO     CLOUDY    58  53  84 SW8       29.99S
ROCKY MOUNT    CLOUDY    62  56  80 SW9       30.01F
$$

VAZ100-282000-
MARINE

STATION/POSITION TIME  TEMP    WIND        PRES    WAVE   SWELL
                       AIR SEA DIR/SP/G            HT/PER HT/PER
                 (UTC) (F)     (DEG/KT/KT) (MB)    (FT/S) (FT/S)
CAPE MAY NJ      1900   49 47  310/  4/  5 1013.2R
LEWES DE         1900   57 44  280/  7/  8 1013.2F
15NM E FENWICK I 1900   51 46              1013.2F   4/ 6
OCEAN-CITY-INLET 1900   57 45  310/  7/  8 1013.3F
WACHAPREAGUE VA  1900   62 49  250/  6/ 11 1013.9S
THOMAS POINT MD  1900   49 43  170/  7/  7 1015.2R
GOOSES REEF MD   1900   49     VRB  4/  6  1013.2S
COVE POINT MD    1900   56     290/  2/  4 1013.9F
SOLOMONS ISLAND  1900      44                N/A
BISHOPS HEAD MD  1900   48 47  170/  4/  5 1013.7F
PINEY POINT MD   1900           10/  5/  5   N/A
POTOMAC MD       1900   51      70/  6/  6 1013.4F
CAMBRIDGE MD     1900   56 42  220/  3/  5 1013.8F
LEWISETTA VA     1900   56 45   10/  5/  6 1013.9R
RAPPAHANNOCK LGT 1900          210/ 11/ 11 1014.3S
STINGRAY PT      1900   57     250/  6/  8 1014.4F
YORK RVR RNG VA  1900   58     240/ 14/ 16 1013.2S
YORKTOWN VA      1900   63 46  240/ 13/ 17 1013.7R
JAMESTOWN VA     1900   60     260/ 10/ 16   N/A
DOMINION TERM VA 1900   58     260/ 14/ 16 1014.5F
KIPTOPEKE VA     1900      51  240/ 11/ 13   N/A
CHES BAY BRIDGE  1900   60 47  230/ 17/ 21 1013.5F
CAPE HENRY VA    1900   64     250/ 13/ 20 1013.2F
CHESAPEAKE LGHT  1800   59     230/ 18/ 20 1015.1F
WILLOUBY STN VA  1900   57     240/  9/ 11 1014.9F
S CRANEY ISL VA  1900          240/ 11/ 16 1014.4R
CAPE HENRY BUOY  1900      48                N/A     2/14   2/14
1ST LANDING BUOY 1900   56     250/ 10/ 14 1014.1F
CAPE CHARLES BUO 1900      48                N/A     2/13   2/13
64NM E OF VA BCH 1900   55 53  220/ 10/ 12 1015.0F   3/13   2/13
DUCK PIER NC     1900   61 49  240/ 13/ 17 1015.3R
44100 DUCK FRF   1900      51                N/A     2/13   2/13
44056 DUCK FRF   1900      48                N/A     2/14   2/14
OREGON INLET NC  1900   56 53  230/  7/  9 1016.3S
HATTERAS NC      1900   62 54  250/  6/  8 1017.0S
DIAMOND SHLS NC  1900   70                 1016.6F   5/14
CAPE LOOKOUT NC  1800   64     260/  8/ 10 1017.2F
$$



USA.gov is the U.S. government's official web portal to all federal, state and local government web resources and services.